Location: Clyde
(45.1830°S, 169.3170°E)
Time: 17:15:42
(UTC+12:00)

Meteor 2-3 Rocket - Pass Details

Date: 14 May 2021
Orbit: 841 x 886 km, 81.2° (Epoch: 16 June)

Event Time Altitude Azimuth Distance (km) Brightness Sun altitude
Rises 19:19:34 0° 7° (N) 3,394 6.9 -20.2°
Reaches altitude 10° 19:22:01 10° 11° (NNE) 2,470 6.1 -20.6°
Maximum altitude 19:27:26 52° 86° (E) 1,064 3.8 -21.5°
Enters shadow 19:29:42 33° 142° (SE) 1,429 4.5 -21.9°
